This is the latest recevied weather packets stored in our database for station/object S54A-11. If no packets are shown the sender has not sent any weather packets the latest 10 day(s).
| Time | Temp. | Humidity | Pressure | Rain* | Wind** | Luminosity | Snow |
|---|---|---|---|---|---|---|---|
| 1777433311 | 11.11° C | 60% | 1019.5 hPa | - | - | - | - |
| 1777432410 | 11.11° C | 70% | 1019.4 hPa | - | - | - | - |
| 1777431510 | 11.11° C | 69% | 1019.5 hPa | - | - | - | - |
| 1777430610 | 11.11° C | 74% | 1019.6 hPa | - | - | - | - |
| 1777429710 | 11.11° C | 65% | 1019.6 hPa | - | - | - | - |
| 1777428810 | 11.67° C | 61% | 1019.6 hPa | - | - | - | - |
| 1777427910 | 11.67° C | 64% | 1019.4 hPa | - | - | - | - |
| 1777427010 | 11.67° C | 62% | 1019.3 hPa | - | - | - | - |
| 1777426110 | 11.67° C | 65% | 1019.3 hPa | - | - | - | - |
| 1777425210 | 11.67° C | 60% | 1019.3 hPa | - | - | - | - |
| 1777424310 | 11.67° C | 58% | 1019.5 hPa | - | - | - | - |
| 1777423410 | 12.22° C | 58% | 1019.6 hPa | - | - | - | - |
| 1777422510 | 11.67° C | 62% | 1019.6 hPa | - | - | - | - |
| 1777421610 | 12.22° C | 58% | 1019.7 hPa | - | - | - | - |
| 1777420710 | 12.22° C | 64% | 1019.7 hPa | - | - | - | - |
| 1777419810 | 12.22° C | 67% | 1019.7 hPa | - | - | - | - |
| 1777418909 | 12.22° C | 67% | 1019.7 hPa | - | - | - | - |
| 1777418009 | 12.22° C | 67% | 1019.8 hPa | - | - | - | - |
| 1777417109 | 12.22° C | 61% | 1019.9 hPa | - | - | - | - |
| 1777416209 | 12.22° C | 57% | 1019.9 hPa | - | - | - | - |
| 1777415309 | 12.22° C | 61% | 1019.7 hPa | - | - | - | - |
| 1777414409 | 12.22° C | 55% | 1020.1 hPa | - | - | - | - |
| 1777413509 | 12.78° C | 55% | 1020 hPa | - | - | - | - |
| 1777412609 | 12.78° C | 59% | 1019.7 hPa | - | - | - | - |
| 1777411709 | 12.78° C | 59% | 1019.5 hPa | - | - | - | - |
* Rain since midnight (hover to see other rain measurements)
** Current wind speed in m/s (hover to see current wind gust speed)